Time,TemperatureF,DewpointF,PressureIn,WindDirection,WindDirectionDegrees,WindSpeedMPH,WindSpeedGustMPH,Humidity,HourlyPrecipIn,Conditions,Clouds,dailyrainin,SoftwareType,DateUTC
2013-08-24 00:00:00,70.6,61.9,30.12,North,0,0.0,0.0,74,0.00,,,0.00,VWS V14.01,2013-08-24 04:00:00,
2013-08-24 00:10:00,70.6,61.9,30.12,North,0,0.0,1.0,74,0.00,,,0.00,VWS V14.01,2013-08-24 04:10:00,
2013-08-24 00:20:00,70.3,61.6,30.12,North,0,0.0,0.0,74,0.00,,,0.00,VWS V14.01,2013-08-24 04:20:00,
2013-08-24 00:30:00,70.1,61.8,30.12,North,0,0.0,0.0,75,0.00,,,0.00,VWS V14.01,2013-08-24 04:30:00,
2013-08-24 00:40:00,69.9,61.6,30.12,North,0,0.0,0.0,75,0.00,,,0.00,VWS V14.01,2013-08-24 04:40:00,
2013-08-24 00:50:00,69.8,61.9,30.12,North,0,0.0,0.0,76,0.00,,,0.00,VWS V14.01,2013-08-24 04:50:00,
2013-08-24 01:00:00,69.4,61.9,30.12,North,0,0.0,0.0,77,0.00,,,0.00,VWS V14.01,2013-08-24 05:00:00,
2013-08-24 01:10:00,69.1,61.6,30.12,North,0,0.0,0.0,77,0.00,,,0.00,VWS V14.01,2013-08-24 05:10:00,
2013-08-24 01:20:00,68.6,61.5,30.12,North,0,0.0,0.0,78,0.00,,,0.00,VWS V14.01,2013-08-24 05:20:00,
2013-08-24 01:30:00,68.3,61.5,30.12,North,0,0.0,0.0,79,0.00,,,0.00,VWS V14.01,2013-08-24 05:30:00,
2013-08-24 01:40:00,68.3,61.5,30.12,North,0,0.0,0.0,79,0.00,,,0.00,VWS V14.01,2013-08-24 05:40:00,
2013-08-24 01:50:00,67.9,61.5,30.12,North,0,0.0,0.0,80,0.00,,,0.00,VWS V14.01,2013-08-24 05:50:00,
2013-08-24 02:00:00,67.6,61.6,30.12,North,0,0.0,0.0,81,0.00,,,0.00,VWS V14.01,2013-08-24 06:00:00,
2013-08-24 02:10:00,67.6,61.6,30.12,North,0,0.0,0.0,81,0.00,,,0.00,VWS V14.01,2013-08-24 06:10:00,
2013-08-24 02:20:00,67.4,61.4,30.13,North,0,0.0,0.0,81,0.00,,,0.00,VWS V14.01,2013-08-24 06:20:00,
2013-08-24 02:30:00,67.3,61.6,30.13,North,0,0.0,1.0,82,0.00,,,0.00,VWS V14.01,2013-08-24 06:30:00,
2013-08-24 02:40:00,67.1,61.4,30.13,North,0,0.0,0.0,82,0.00,,,0.00,VWS V14.01,2013-08-24 06:40:00,
2013-08-24 02:50:00,66.9,61.6,30.13,North,0,0.0,0.0,83,0.00,,,0.00,VWS V14.01,2013-08-24 06:50:00,
2013-08-24 03:00:00,66.8,61.5,30.13,North,0,0.0,0.0,83,0.00,,,0.00,VWS V14.01,2013-08-24 07:00:00,
2013-08-24 03:10:00,66.6,61.3,30.13,North,0,0.0,0.0,83,0.00,,,0.00,VWS V14.01,2013-08-24 07:10:00,
2013-08-24 03:20:00,66.4,61.4,30.14,North,0,0.0,0.0,84,0.00,,,0.00,VWS V14.01,2013-08-24 07:20:00,
2013-08-24 03:30:00,66.3,61.3,30.14,North,0,0.0,0.0,84,0.00,,,0.00,VWS V14.01,2013-08-24 07:30:00,
2013-08-24 03:40:00,66.1,61.5,30.14,North,0,0.0,0.0,85,0.00,,,0.00,VWS V14.01,2013-08-24 07:40:00,
2013-08-24 03:50:00,66.0,61.4,30.14,North,0,0.0,0.0,85,0.00,,,0.00,VWS V14.01,2013-08-24 07:50:00,
2013-08-24 04:00:00,65.8,61.2,30.14,North,0,0.0,0.0,85,0.00,,,0.00,VWS V14.01,2013-08-24 08:00:00,
2013-08-24 04:10:00,66.0,61.4,30.14,North,0,0.0,0.0,85,0.00,,,0.00,VWS V14.01,2013-08-24 08:10:00,
2013-08-24 04:20:00,66.0,61.4,30.14,North,0,0.0,0.0,85,0.00,,,0.00,VWS V14.01,2013-08-24 08:20:00,
2013-08-24 04:30:00,65.8,61.2,30.14,North,0,0.0,0.0,85,0.00,,,0.00,VWS V14.01,2013-08-24 08:30:00,
2013-08-24 04:40:00,66.0,61.0,30.14,North,0,0.0,0.0,84,0.00,,,0.00,VWS V14.01,2013-08-24 08:40:00,
2013-08-24 04:50:00,66.0,61.0,30.15,North,0,0.0,0.0,84,0.00,,,0.00,VWS V14.01,2013-08-24 08:50:00,
2013-08-24 05:00:00,66.0,61.0,30.16,North,0,0.0,0.0,84,0.00,,,0.00,VWS V14.01,2013-08-24 09:00:00,
2013-08-24 05:10:00,65.8,61.2,30.16,North,0,0.0,0.0,85,0.00,,,0.00,VWS V14.01,2013-08-24 09:10:00,
2013-08-24 05:20:00,65.5,60.9,30.16,North,0,0.0,0.0,85,0.00,,,0.00,VWS V14.01,2013-08-24 09:20:00,
2013-08-24 05:30:00,65.2,60.9,30.17,North,0,0.0,0.0,86,0.00,,,0.00,VWS V14.01,2013-08-24 09:30:00,
2013-08-24 05:40:00,65.2,61.2,30.17,North,0,0.0,0.0,87,0.00,,,0.00,VWS V14.01,2013-08-24 09:40:00,
2013-08-24 05:50:00,65.0,61.0,30.17,North,0,0.0,0.0,87,0.00,,,0.00,VWS V14.01,2013-08-24 09:50:00,
2013-08-24 06:00:00,65.0,61.0,30.17,North,0,0.0,0.0,87,0.00,,,0.00,VWS V14.01,2013-08-24 10:00:00,
2013-08-24 06:10:00,64.8,61.2,30.17,North,0,0.0,0.0,88,0.00,,,0.00,VWS V14.01,2013-08-24 10:10:00,
2013-08-24 06:20:00,65.0,61.4,30.18,North,0,0.0,0.0,88,0.00,,,0.00,VWS V14.01,2013-08-24 10:20:00,
2013-08-24 06:30:00,65.2,61.6,30.19,North,0,0.0,0.0,88,0.00,,,0.00,VWS V14.01,2013-08-24 10:30:00,
2013-08-24 06:40:00,65.6,61.6,30.19,North,0,0.0,0.0,87,0.00,,,0.00,VWS V14.01,2013-08-24 10:40:00,
2013-08-24 06:50:00,66.1,61.8,30.19,North,0,0.0,2.0,86,0.00,,,0.00,VWS V14.01,2013-08-24 10:50:00,
2013-08-24 07:00:00,66.6,62.0,30.20,North,0,0.0,1.0,85,0.00,,,0.00,VWS V14.01,2013-08-24 11:00:00,
2013-08-24 07:10:00,67.4,62.4,30.20,North,0,0.0,1.0,84,0.00,,,0.00,VWS V14.01,2013-08-24 11:10:00,
2013-08-24 07:20:00,68.3,62.6,30.20,North,0,0.0,1.0,82,0.00,,,0.00,VWS V14.01,2013-08-24 11:20:00,
2013-08-24 07:30:00,69.1,62.7,30.20,North,0,0.0,0.0,80,0.00,,,0.00,VWS V14.01,2013-08-24 11:30:00,
2013-08-24 07:40:00,70.1,62.9,30.20,North,0,0.0,1.0,78,0.00,,,0.00,VWS V14.01,2013-08-24 11:40:00,
2013-08-24 07:50:00,70.8,62.9,30.21,North,0,0.0,1.0,76,0.00,,,0.00,VWS V14.01,2013-08-24 11:50:00,
2013-08-24 08:00:00,71.5,62.8,30.22,North,0,0.0,2.0,74,0.00,,,0.00,VWS V14.01,2013-08-24 12:00:00,
2013-08-24 08:10:00,72.1,63.4,30.22,North,0,0.0,2.0,74,0.00,,,0.00,VWS V14.01,2013-08-24 12:10:00,
2013-08-24 08:20:00,73.0,63.8,30.22,North,0,0.0,1.0,73,0.00,,,0.00,VWS V14.01,2013-08-24 12:20:00,
2013-08-24 08:30:00,73.9,63.5,30.22,East,90,0.0,2.0,70,0.00,,,0.00,VWS V14.01,2013-08-24 12:30:00,
2013-08-24 08:40:00,75.1,63.8,30.22,East,90,0.0,2.0,68,0.00,,,0.00,VWS V14.01,2013-08-24 12:40:00,
2013-08-24 08:50:00,76.3,63.7,30.22,NNW,338,0.0,2.0,65,0.00,,,0.00,VWS V14.01,2013-08-24 12:50:00,
2013-08-24 09:00:00,76.7,64.1,30.23,NNW,338,0.0,2.0,65,0.00,,,0.00,VWS V14.01,2013-08-24 13:00:00,
2013-08-24 09:10:00,77.9,64.3,30.23,NNW,338,0.0,2.0,63,0.00,,,0.00,VWS V14.01,2013-08-24 13:10:00,
2013-08-24 09:20:00,78.8,64.2,30.23,NNW,338,0.0,2.0,61,0.00,,,0.00,VWS V14.01,2013-08-24 13:20:00,
2013-08-24 09:30:00,79.2,64.1,30.23,NNW,338,0.0,1.0,60,0.00,,,0.00,VWS V14.01,2013-08-24 13:30:00,
2013-08-24 09:40:00,80.1,65.0,30.23,NNW,338,0.0,1.0,60,0.00,,,0.00,VWS V14.01,2013-08-24 13:40:00,
2013-08-24 09:50:00,81.1,64.4,30.23,WNW,292,0.0,2.0,57,0.00,,,0.00,VWS V14.01,2013-08-24 13:50:00,
2013-08-24 10:00:00,81.6,64.4,30.23,East,90,0.0,3.0,56,0.00,,,0.00,VWS V14.01,2013-08-24 14:00:00,
2013-08-24 10:10:00,82.2,63.9,30.23,East,90,0.0,3.0,54,0.00,,,0.00,VWS V14.01,2013-08-24 14:10:00,
2013-08-24 10:20:00,82.4,61.9,30.23,NE,45,0.0,4.0,50,0.00,,,0.00,VWS V14.01,2013-08-24 14:20:00,
2013-08-24 10:30:00,83.2,62.7,30.23,ENE,68,0.0,4.0,50,0.00,,,0.00,VWS V14.01,2013-08-24 14:30:00,
2013-08-24 10:40:00,83.6,63.0,30.23,NE,45,0.0,4.0,50,0.00,,,0.00,VWS V14.01,2013-08-24 14:40:00,
2013-08-24 10:50:00,84.9,59.3,30.23,NE,45,0.0,1.0,42,0.00,,,0.00,VWS V14.01,2013-08-24 14:50:00,
2013-08-24 11:00:00,85.1,60.8,30.23,NE,45,0.0,1.0,44,0.00,,,0.00,VWS V14.01,2013-08-24 15:00:00,
2013-08-24 11:10:00,85.5,61.1,30.23,NE,45,0.0,1.0,44,0.00,,,0.00,VWS V14.01,2013-08-24 15:10:00,
2013-08-24 11:20:00,85.3,59.6,30.22,NE,45,0.0,2.0,42,0.00,,,0.00,VWS V14.01,2013-08-24 15:20:00,
2013-08-24 11:30:00,85.9,59.5,30.22,NE,45,0.0,3.0,41,0.00,,,0.00,VWS V14.01,2013-08-24 15:30:00,
2013-08-24 11:40:00,86.3,57.7,30.22,NE,45,0.0,2.0,38,0.00,,,0.00,VWS V14.01,2013-08-24 15:40:00,
2013-08-24 11:50:00,87.2,58.5,30.22,NE,45,0.0,1.0,38,0.00,,,0.00,VWS V14.01,2013-08-24 15:50:00,
2013-08-24 12:00:00,87.8,59.8,30.22,NE,45,0.0,3.0,39,0.00,,,0.00,VWS V14.01,2013-08-24 16:00:00,
2013-08-24 12:10:00,87.0,59.1,30.22,East,90,0.0,2.0,39,0.00,,,0.00,VWS V14.01,2013-08-24 16:10:00,
2013-08-24 12:20:00,86.7,58.1,30.21,East,90,0.0,3.0,38,0.00,,,0.00,VWS V14.01,2013-08-24 16:20:00,
2013-08-24 12:30:00,85.3,53.0,30.21,East,90,0.0,1.0,33,0.00,,,0.00,VWS V14.01,2013-08-24 16:30:00,
2013-08-24 12:40:00,84.0,45.5,30.21,NW,315,1.0,3.0,26,0.00,,,0.00,VWS V14.01,2013-08-24 16:40:00,
2013-08-24 12:50:00,84.9,51.8,30.21,NE,45,0.0,2.0,32,0.00,,,0.00,VWS V14.01,2013-08-24 16:50:00,
2013-08-24 13:00:00,85.5,57.0,30.20,NE,45,0.0,4.0,38,0.00,,,0.00,VWS V14.01,2013-08-24 17:00:00,
2013-08-24 13:10:00,85.7,56.5,30.20,ESE,112,0.0,2.0,37,0.00,,,0.00,VWS V14.01,2013-08-24 17:10:00,
2013-08-24 13:20:00,86.3,55.5,30.20,ESE,112,0.0,4.0,35,0.00,,,0.00,VWS V14.01,2013-08-24 17:20:00,
2013-08-24 13:30:00,85.5,51.4,30.20,North,0,0.0,1.0,31,0.00,,,0.00,VWS V14.01,2013-08-24 17:30:00,
2013-08-24 13:40:00,84.9,54.2,30.20,North,0,0.0,3.0,35,0.00,,,0.00,VWS V14.01,2013-08-24 17:40:00,
2013-08-24 13:50:00,84.5,52.3,30.20,North,0,0.0,3.0,33,0.00,,,0.00,VWS V14.01,2013-08-24 17:50:00,
2013-08-24 14:00:00,84.5,53.1,30.20,North,0,0.0,5.0,34,0.00,,,0.00,VWS V14.01,2013-08-24 18:00:00,
2013-08-24 14:10:00,84.7,53.3,30.20,North,0,0.0,5.0,34,0.00,,,0.00,VWS V14.01,2013-08-24 18:10:00,
2013-08-24 14:20:00,84.3,53.7,30.20,NW,315,0.0,5.0,35,0.00,,,0.00,VWS V14.01,2013-08-24 18:20:00,
2013-08-24 14:30:00,84.0,52.6,30.19,ENE,68,0.0,5.0,34,0.00,,,0.00,VWS V14.01,2013-08-24 18:30:00,
2013-08-24 14:40:00,83.8,54.0,30.19,SSE,158,0.0,2.0,36,0.00,,,0.00,VWS V14.01,2013-08-24 18:40:00,
2013-08-24 14:50:00,83.8,54.0,30.20,SSE,158,0.0,1.0,36,0.00,,,0.00,VWS V14.01,2013-08-24 18:50:00,
2013-08-24 15:00:00,83.6,53.8,30.20,NNW,338,0.0,3.0,36,0.00,,,0.00,VWS V14.01,2013-08-24 19:00:00,
2013-08-24 15:10:00,83.4,57.3,30.20,NE,45,0.0,4.0,41,0.00,,,0.00,VWS V14.01,2013-08-24 19:10:00,
2013-08-24 15:20:00,83.2,55.0,30.20,NE,45,0.0,5.0,38,0.00,,,0.00,VWS V14.01,2013-08-24 19:20:00,
2013-08-24 15:30:00,82.6,55.2,30.20,North,0,0.0,1.0,39,0.00,,,0.00,VWS V14.01,2013-08-24 19:30:00,
2013-08-24 15:50:00,83.4,57.3,30.20,NE,56,0.0,1.0,41,0.00,,,0.00,VWS V14.01,2013-08-24 19:50:00,
2013-08-24 15:51:00,83.2,57.1,30.20,ENE,70,0.0,1.0,41,0.00,,,0.00,VWS V14.01,2013-08-24 19:51:00,
2013-08-24 15:56:00,83.0,56.2,30.20,ENE,61,0.0,1.0,40,0.00,,,0.00,VWS V14.01,2013-08-24 19:56:00,
2013-08-24 16:00:00,82.8,58.0,30.20,ENE,61,0.0,1.0,43,0.00,,,0.00,VWS V14.01,2013-08-24 20:00:00,
2013-08-24 16:01:00,82.8,57.4,30.20,ENE,61,0.0,1.0,42,0.00,,,0.00,VWS V14.01,2013-08-24 20:01:00,
2013-08-24 16:06:00,82.4,55.7,30.20,ENE,61,0.0,1.0,40,0.00,,,0.00,VWS V14.01,2013-08-24 20:06:00,
2013-08-24 16:10:00,82.2,56.2,30.20,ENE,61,0.0,1.0,41,0.00,,,0.00,VWS V14.01,2013-08-24 20:10:00,
2013-08-24 16:11:00,82.2,55.5,30.20,ENE,61,0.0,1.0,40,0.00,,,0.00,VWS V14.01,2013-08-24 20:11:00,
2013-08-24 16:16:00,82.2,57.5,30.19,ENE,61,0.0,1.0,43,0.00,,,0.00,VWS V14.01,2013-08-24 20:16:00,
2013-08-24 16:20:00,82.4,57.0,30.19,ENE,61,0.0,1.0,42,0.00,,,0.00,VWS V14.01,2013-08-24 20:20:00,
2013-08-24 16:21:00,82.4,58.3,30.19,ENE,61,0.0,1.0,44,0.00,,,0.00,VWS V14.01,2013-08-24 20:21:00,
2013-08-24 16:26:00,82.6,58.5,30.19,ENE,61,1.0,1.0,44,0.00,,,0.00,VWS V14.01,2013-08-24 20:26:00,
2013-08-24 16:30:00,82.6,57.9,30.19,South,169,0.0,1.0,43,0.00,,,0.00,VWS V14.01,2013-08-24 20:30:00,
2013-08-24 16:31:00,82.6,57.2,30.19,SE,138,0.0,1.0,42,0.00,,,0.00,VWS V14.01,2013-08-24 20:31:00,
2013-08-24 16:36:00,82.2,57.5,30.19,South,186,0.0,1.0,43,0.00,,,0.00,VWS V14.01,2013-08-24 20:36:00,
2013-08-24 16:40:00,82.0,56.7,30.19,SSE,153,0.0,1.0,42,0.00,,,0.00,VWS V14.01,2013-08-24 20:40:00,
2013-08-24 16:41:00,81.8,57.1,30.19,SSE,153,0.0,1.0,43,0.00,,,0.00,VWS V14.01,2013-08-24 20:41:00,
2013-08-24 16:46:00,81.6,57.6,30.19,SSE,153,0.0,1.0,44,0.00,,,0.00,VWS V14.01,2013-08-24 20:46:00,
2013-08-24 16:50:00,81.4,57.4,30.19,SSE,153,0.0,1.0,44,0.00,,,0.00,VWS V14.01,2013-08-24 20:50:00,
2013-08-24 16:51:00,81.2,57.9,30.19,SSE,153,0.0,1.0,45,0.00,,,0.00,VWS V14.01,2013-08-24 20:51:00,
2013-08-24 16:56:00,81.2,57.2,30.19,SSE,153,0.0,1.0,44,0.00,,,0.00,VWS V14.01,2013-08-24 20:56:00,
2013-08-24 17:00:00,81.4,57.4,30.19,SSE,153,0.0,1.0,44,0.00,,,0.00,VWS V14.01,2013-08-24 21:00:00,
2013-08-24 17:01:00,81.4,57.4,30.19,SSE,153,0.0,1.0,44,0.00,,,0.00,VWS V14.01,2013-08-24 21:01:00,
2013-08-24 17:06:00,81.4,56.8,30.19,NNE,22,0.0,1.0,43,0.00,,,0.00,VWS V14.01,2013-08-24 21:06:00,
2013-08-24 17:10:00,81.2,56.6,30.19,NNE,22,0.0,1.0,43,0.00,,,0.00,VWS V14.01,2013-08-24 21:10:00,
2013-08-24 17:11:00,81.2,56.0,30.19,NNE,22,0.0,1.0,42,0.00,,,0.00,VWS V14.01,2013-08-24 21:11:00,
2013-08-24 17:16:00,81.1,55.9,30.20,NNE,22,0.0,1.0,42,0.00,,,0.00,VWS V14.01,2013-08-24 21:16:00,
2013-08-24 17:20:00,80.9,55.0,30.20,NNE,22,0.0,1.0,41,0.00,,,0.00,VWS V14.01,2013-08-24 21:20:00,
2013-08-24 17:21:00,80.7,54.8,30.20,NNE,22,0.0,1.0,41,0.00,,,0.00,VWS V14.01,2013-08-24 21:21:00,
2013-08-24 17:26:00,80.5,54.7,30.20,NNE,22,0.0,1.0,41,0.00,,,0.00,VWS V14.01,2013-08-24 21:26:00,
2013-08-24 17:30:00,80.5,55.3,30.19,NNE,22,0.0,1.0,42,0.00,,,0.00,VWS V14.01,2013-08-24 21:30:00,
2013-08-24 17:31:00,80.5,55.3,30.19,NNE,22,0.0,1.0,42,0.00,,,0.00,VWS V14.01,2013-08-24 21:31:00,
2013-08-24 17:36:00,80.5,55.3,30.19,NE,42,0.0,1.0,42,0.00,,,0.00,VWS V14.01,2013-08-24 21:36:00,
2013-08-24 17:40:00,80.5,54.7,30.19,NE,42,0.0,1.0,41,0.00,,,0.00,VWS V14.01,2013-08-24 21:40:00,
2013-08-24 17:41:00,80.5,55.3,30.19,NE,42,0.0,1.0,42,0.00,,,0.00,VWS V14.01,2013-08-24 21:41:00,
2013-08-24 17:46:00,80.7,55.5,30.19,NE,42,0.0,1.0,42,0.00,,,0.00,VWS V14.01,2013-08-24 21:46:00,
2013-08-24 17:50:00,80.7,55.5,30.19,NE,42,0.0,1.0,42,0.00,,,0.00,VWS V14.01,2013-08-24 21:50:00,
2013-08-24 17:52:00,80.7,55.5,30.19,NE,42,0.0,1.0,42,0.00,,,0.00,VWS V14.01,2013-08-24 21:52:00,
2013-08-24 17:56:00,80.7,56.2,30.19,NE,42,0.0,1.0,43,0.00,,,0.00,VWS V14.01,2013-08-24 21:56:00,
2013-08-24 18:00:00,80.7,56.2,30.19,NE,42,0.0,1.0,43,0.00,,,0.00,VWS V14.01,2013-08-24 22:00:00,
2013-08-24 18:02:00,80.7,56.2,30.19,NE,42,0.0,1.0,43,0.00,,,0.00,VWS V14.01,2013-08-24 22:02:00,
2013-08-24 18:07:00,80.5,56.0,30.19,NE,42,0.0,1.0,43,0.00,,,0.00,VWS V14.01,2013-08-24 22:07:00,
2013-08-24 18:10:00,80.5,56.0,30.19,NE,42,0.0,1.0,43,0.00,,,0.00,VWS V14.01,2013-08-24 22:10:00,
2013-08-24 18:12:00,80.3,55.8,30.19,NE,42,0.0,1.0,43,0.00,,,0.00,VWS V14.01,2013-08-24 22:12:00,
2013-08-24 18:17:00,80.3,56.4,30.19,NE,42,0.0,1.0,44,0.00,,,0.00,VWS V14.01,2013-08-24 22:17:00,
2013-08-24 18:20:00,80.1,56.2,30.19,NE,42,0.0,1.0,44,0.00,,,0.00,VWS V14.01,2013-08-24 22:20:00,
2013-08-24 18:22:00,80.1,56.2,30.19,NE,42,0.0,1.0,44,0.00,,,0.00,VWS V14.01,2013-08-24 22:22:00,
2013-08-24 18:27:00,79.9,56.7,30.19,NE,42,0.0,1.0,45,0.00,,,0.00,VWS V14.01,2013-08-24 22:27:00,
2013-08-24 18:30:00,79.8,56.6,30.19,NE,42,0.0,1.0,45,0.00,,,0.00,VWS V14.01,2013-08-24 22:30:00,
2013-08-24 18:32:00,79.8,57.2,30.19,NE,42,0.0,1.0,46,0.00,,,0.00,VWS V14.01,2013-08-24 22:32:00,
2013-08-24 18:37:00,79.6,56.4,30.19,NE,42,0.0,1.0,45,0.00,,,0.00,VWS V14.01,2013-08-24 22:37:00,
2013-08-24 18:40:00,79.4,56.2,30.19,NE,42,0.0,1.0,45,0.00,,,0.00,VWS V14.01,2013-08-24 22:40:00,
2013-08-24 18:42:00,79.4,56.2,30.19,NE,42,0.0,1.0,45,0.00,,,0.00,VWS V14.01,2013-08-24 22:42:00,
2013-08-24 18:47:00,79.2,56.7,30.19,NE,42,0.0,1.0,46,0.00,,,0.00,VWS V14.01,2013-08-24 22:47:00,
2013-08-24 18:50:00,79.2,57.2,30.19,NE,42,0.0,1.0,47,0.00,,,0.00,VWS V14.01,2013-08-24 22:50:00,
2013-08-24 18:52:00,79.0,57.1,30.19,NE,42,0.0,1.0,47,0.00,,,0.00,VWS V14.01,2013-08-24 22:52:00,
2013-08-24 18:57:00,78.8,57.5,30.19,NE,42,0.0,1.0,48,0.00,,,0.00,VWS V14.01,2013-08-24 22:57:00,
2013-08-24 19:00:00,78.6,57.3,30.19,NE,42,0.0,1.0,48,0.00,,,0.00,VWS V14.01,2013-08-24 23:00:00,
2013-08-24 19:02:00,78.5,57.2,30.19,NE,42,0.0,1.0,48,0.00,,,0.00,VWS V14.01,2013-08-24 23:02:00,
2013-08-24 19:07:00,78.3,57.6,30.19,NE,42,0.0,1.0,49,0.00,,,0.00,VWS V14.01,2013-08-24 23:07:00,
2013-08-24 19:10:00,78.1,58.0,30.19,NE,42,0.0,1.0,50,0.00,,,0.00,VWS V14.01,2013-08-24 23:10:00,
2013-08-24 19:12:00,77.9,57.8,30.19,NE,42,0.0,1.0,50,0.00,,,0.00,VWS V14.01,2013-08-24 23:12:00,
2013-08-24 19:17:00,77.6,57.5,30.19,NE,42,0.0,1.0,50,0.00,,,0.00,VWS V14.01,2013-08-24 23:17:00,
2013-08-24 19:20:00,77.4,57.9,30.19,NE,42,0.0,1.0,51,0.00,,,0.00,VWS V14.01,2013-08-24 23:20:00,
2013-08-24 19:22:00,77.4,57.9,30.19,NE,42,0.0,1.0,51,0.00,,,0.00,VWS V14.01,2013-08-24 23:22:00,
2013-08-24 19:27:00,77.0,57.5,30.19,NE,42,0.0,1.0,51,0.00,,,0.00,VWS V14.01,2013-08-24 23:27:00,
2013-08-24 19:30:00,77.0,58.0,30.20,NE,42,0.0,1.0,52,0.00,,,0.00,VWS V14.01,2013-08-24 23:30:00,
2013-08-24 19:32:00,76.8,57.9,30.20,NE,42,0.0,1.0,52,0.00,,,0.00,VWS V14.01,2013-08-24 23:32:00,
2013-08-24 19:37:00,76.7,58.3,30.20,NE,42,0.0,1.0,53,0.00,,,0.00,VWS V14.01,2013-08-24 23:37:00,
2013-08-24 19:40:00,76.5,58.1,30.20,NE,42,0.0,1.0,53,0.00,,,0.00,VWS V14.01,2013-08-24 23:40:00,
2013-08-24 19:42:00,76.3,57.9,30.20,NE,42,0.0,1.0,53,0.00,,,0.00,VWS V14.01,2013-08-24 23:42:00,
2013-08-24 19:47:00,76.0,58.2,30.20,NE,42,0.0,1.0,54,0.00,,,0.00,VWS V14.01,2013-08-24 23:47:00,
2013-08-24 19:50:00,76.0,58.2,30.20,NE,42,0.0,1.0,54,0.00,,,0.00,VWS V14.01,2013-08-24 23:50:00,
2013-08-24 19:52:00,75.8,58.5,30.20,NE,42,0.0,1.0,55,0.00,,,0.00,VWS V14.01,2013-08-24 23:52:00,
2013-08-24 19:57:00,75.6,58.3,30.20,NE,42,0.0,1.0,55,0.00,,,0.00,VWS V14.01,2013-08-24 23:57:00,
2013-08-24 20:00:00,75.4,58.1,30.20,NE,42,0.0,1.0,55,0.00,,,0.00,VWS V14.01,2013-08-25 00:00:00,
2013-08-24 20:02:00,75.4,58.1,30.20,NE,42,0.0,1.0,55,0.00,,,0.00,VWS V14.01,2013-08-25 00:02:00,
2013-08-24 20:07:00,75.3,58.0,30.20,NE,42,0.0,1.0,55,0.00,,,0.00,VWS V14.01,2013-08-25 00:07:00,
2013-08-24 20:10:00,75.1,57.8,30.20,NE,42,0.0,1.0,55,0.00,,,0.00,VWS V14.01,2013-08-25 00:10:00,
2013-08-24 20:12:00,75.1,57.8,30.20,NE,42,0.0,1.0,55,0.00,,,0.00,VWS V14.01,2013-08-25 00:12:00,
2013-08-24 20:17:00,74.9,57.2,30.20,NE,42,0.0,1.0,54,0.00,,,0.00,VWS V14.01,2013-08-25 00:17:00,
2013-08-24 20:20:00,74.9,57.7,30.20,NE,42,0.0,1.0,55,0.00,,,0.00,VWS V14.01,2013-08-25 00:20:00,
2013-08-24 20:22:00,74.7,57.5,30.20,NE,42,0.0,1.0,55,0.00,,,0.00,VWS V14.01,2013-08-25 00:22:00,
2013-08-24 20:27:00,74.6,57.4,30.20,NE,42,0.0,1.0,55,0.00,,,0.00,VWS V14.01,2013-08-25 00:27:00,
2013-08-24 20:30:00,74.6,57.9,30.22,NE,42,0.0,1.0,56,0.00,,,0.00,VWS V14.01,2013-08-25 00:30:00,
2013-08-24 20:32:00,74.4,57.7,30.22,NE,42,0.0,1.0,56,0.00,,,0.00,VWS V14.01,2013-08-25 00:32:00,
2013-08-24 20:37:00,74.4,57.7,30.22,NE,42,0.0,1.0,56,0.00,,,0.00,VWS V14.01,2013-08-25 00:37:00,
2013-08-24 20:40:00,74.2,57.5,30.22,NE,42,0.0,1.0,56,0.00,,,0.00,VWS V14.01,2013-08-25 00:40:00,
2013-08-24 20:42:00,74.2,58.0,30.22,NE,42,0.0,1.0,57,0.00,,,0.00,VWS V14.01,2013-08-25 00:42:00,
2013-08-24 20:47:00,74.0,57.8,30.22,NE,42,0.0,1.0,57,0.00,,,0.00,VWS V14.01,2013-08-25 00:47:00,
2013-08-24 20:52:00,74.0,57.3,30.22,NE,42,0.0,1.0,56,0.00,,,0.00,VWS V14.01,2013-08-25 00:52:00,
2013-08-24 21:00:00,74.0,57.3,30.22,NE,42,0.0,1.0,56,0.00,,,0.00,VWS V14.01,2013-08-25 01:00:00,
2013-08-24 21:02:00,74.0,57.3,30.22,NE,42,0.0,1.0,56,0.00,,,0.00,VWS V14.01,2013-08-25 01:02:00,
2013-08-24 21:10:00,73.9,57.2,30.22,NE,42,0.0,1.0,56,0.00,,,0.00,VWS V14.01,2013-08-25 01:10:00,
2013-08-24 21:30:00,73.5,57.8,30.22,NE,42,0.0,1.0,58,0.00,,,0.00,VWS V14.01,2013-08-25 01:30:00,
2013-08-24 21:32:00,73.3,57.7,30.22,NE,42,0.0,1.0,58,0.00,,,0.00,VWS V14.01,2013-08-25 01:32:00,
2013-08-24 21:40:00,73.2,58.0,30.22,NE,42,0.0,1.0,59,0.00,,,0.00,VWS V14.01,2013-08-25 01:40:00,
2013-08-24 21:42:00,73.0,57.8,30.22,NE,42,0.0,1.0,59,0.00,,,0.00,VWS V14.01,2013-08-25 01:42:00,
2013-08-24 21:54:00,74.0,57.3,30.22,NE,42,0.0,1.0,56,0.00,,,0.00,VWS V14.01,2013-08-25 01:54:00,
2013-08-24 22:02:00,74.0,57.3,30.22,NE,42,0.0,1.0,56,0.00,,,0.00,VWS V14.01,2013-08-25 02:02:00,
2013-08-24 22:10:00,72.0,58.3,30.24,NE,42,0.0,1.0,62,0.00,,,0.00,VWS V14.01,2013-08-25 02:10:00,
2013-08-24 22:12:00,73.9,57.2,30.22,NE,42,0.0,1.0,56,0.00,,,0.00,VWS V14.01,2013-08-25 02:12:00,
2013-08-24 22:17:00,73.9,57.7,30.22,NE,42,0.0,1.0,57,0.00,,,0.00,VWS V14.01,2013-08-25 02:17:00,
2013-08-24 22:22:00,73.7,57.5,30.22,NE,42,0.0,1.0,57,0.00,,,0.00,VWS V14.01,2013-08-25 02:22:00,
2013-08-24 22:27:00,73.7,57.5,30.22,NE,42,0.0,1.0,57,0.00,,,0.00,VWS V14.01,2013-08-25 02:27:00,
2013-08-24 22:32:00,73.5,57.8,30.22,NE,42,0.0,1.0,58,0.00,,,0.00,VWS V14.01,2013-08-25 02:32:00,
2013-08-24 22:42:00,73.2,58.0,30.22,NE,42,0.0,1.0,59,0.00,,,0.00,VWS V14.01,2013-08-25 02:42:00,
2013-08-24 22:52:00,72.8,57.7,30.23,NE,42,0.0,1.0,59,0.00,,,0.00,VWS V14.01,2013-08-25 02:52:00,
2013-08-24 22:57:00,72.7,58.0,30.23,NE,42,0.0,1.0,60,0.00,,,0.00,VWS V14.01,2013-08-25 02:57:00,
2013-08-24 23:00:00,70.6,58.3,30.24,NE,42,0.0,1.0,65,0.00,,,0.00,VWS V14.01,2013-08-25 03:00:00,
2013-08-24 23:02:00,72.5,58.3,30.23,NE,42,0.0,1.0,61,0.00,,,0.00,VWS V14.01,2013-08-25 03:02:00,
2013-08-24 23:07:00,70.6,58.3,30.24,NE,42,0.0,1.0,65,0.00,,,0.00,VWS V14.01,2013-08-25 03:07:00,
2013-08-24 23:10:00,70.4,58.1,30.24,NE,42,0.0,1.0,65,0.00,,,0.00,VWS V14.01,2013-08-25 03:10:00,
2013-08-24 23:12:00,72.1,57.9,30.24,NE,42,0.0,1.0,61,0.00,,,0.00,VWS V14.01,2013-08-25 03:12:00,
2013-08-24 23:17:00,72.0,58.3,30.24,NE,42,0.0,1.0,62,0.00,,,0.00,VWS V14.01,2013-08-25 03:17:00,
2013-08-24 23:20:00,70.4,58.5,30.25,NE,42,0.0,1.0,66,0.00,,,0.00,VWS V14.01,2013-08-25 03:20:00,
2013-08-24 23:22:00,71.8,58.1,30.24,NE,42,0.0,1.0,62,0.00,,,0.00,VWS V14.01,2013-08-25 03:22:00,
2013-08-24 23:27:00,71.6,58.3,30.24,NE,42,0.0,1.0,63,0.00,,,0.00,VWS V14.01,2013-08-25 03:27:00,
2013-08-24 23:28:00,70.4,58.5,30.25,NE,42,0.0,1.0,66,0.00,,,0.00,VWS V14.01,2013-08-25 03:28:00,
2013-08-24 23:30:00,70.4,58.5,30.25,NE,42,0.0,1.0,66,0.00,,,0.00,VWS V14.01,2013-08-25 03:30:00,
2013-08-24 23:32:00,71.5,58.3,30.24,NE,42,0.0,1.0,63,0.00,,,0.00,VWS V14.01,2013-08-25 03:32:00,
2013-08-24 23:33:00,70.4,58.5,30.25,NE,42,0.0,1.0,66,0.00,,,0.00,VWS V14.01,2013-08-25 03:33:00,
2013-08-24 23:37:00,71.3,58.5,30.24,NE,42,0.0,1.0,64,0.00,,,0.00,VWS V14.01,2013-08-25 03:37:00,
2013-08-24 23:38:00,70.4,58.5,30.25,NE,42,0.0,1.0,66,0.00,,,0.00,VWS V14.01,2013-08-25 03:38:00,
2013-08-24 23:40:00,70.4,58.5,30.25,NE,42,0.0,1.0,66,0.00,,,0.00,VWS V14.01,2013-08-25 03:40:00,
2013-08-24 23:42:00,71.1,58.3,30.24,NE,42,0.0,1.0,64,0.00,,,0.00,VWS V14.01,2013-08-25 03:42:00,
2013-08-24 23:43:00,70.4,58.5,30.25,NE,42,0.0,1.0,66,0.00,,,0.00,VWS V14.01,2013-08-25 03:43:00,
2013-08-24 23:47:00,70.9,58.1,30.24,NE,42,0.0,1.0,64,0.00,,,0.00,VWS V14.01,2013-08-25 03:47:00,
2013-08-24 23:48:00,70.4,58.1,30.25,NE,42,0.0,1.0,65,0.00,,,0.00,VWS V14.01,2013-08-25 03:48:00,
2013-08-24 23:50:00,70.4,58.5,30.25,NE,42,0.0,1.0,66,0.00,,,0.00,VWS V14.01,2013-08-25 03:50:00,
2013-08-24 23:52:00,70.9,58.1,30.24,NE,42,0.0,1.0,64,0.00,,,0.00,VWS V14.01,2013-08-25 03:52:00,
2013-08-24 23:53:00,70.4,58.1,30.25,NE,42,0.0,1.0,65,0.00,,,0.00,VWS V14.01,2013-08-25 03:53:00,
2013-08-24 23:57:00,70.8,58.5,30.24,NE,42,0.0,1.0,65,0.00,,,0.00,VWS V14.01,2013-08-25 03:57:00,
2013-08-24 23:58:00,70.4,58.5,30.25,NE,42,0.0,1.0,66,0.00,,,0.00,VWS V14.01,2013-08-25 03:58:00,